TimeEST,TemperatureF,Dew PointF,Humidity,Sea Level PressureIn,VisibilityMPH,Wind Direction,Wind SpeedMPH,Gust SpeedMPH,PrecipitationIn,Events,Conditions,WindDirDegrees,DateUTC
12:15 AM,22.5,20.5,92,30.30,10.0,Calm,Calm,-,N/A,,Clear,0,2013-01-04 05:15:00
12:35 AM,21.7,19.6,91,30.30,10.0,Calm,Calm,-,N/A,,Clear,0,2013-01-04 05:35:00
1:15 AM,20.1,18.1,92,30.28,10.0,Calm,Calm,-,N/A,,Clear,0,2013-01-04 06:15:00
1:35 AM,21.2,19.4,93,30.28,10.0,Calm,Calm,-,N/A,,Clear,0,2013-01-04 06:35:00
1:55 AM,20.1,18.1,92,30.28,10.0,Calm,Calm,-,N/A,,Clear,0,2013-01-04 06:55:00
2:35 AM,19.9,18.0,92,30.29,10.0,Calm,Calm,-,N/A,,Clear,0,2013-01-04 07:35:00
2:55 AM,20.1,18.3,93,30.30,10.0,Calm,Calm,-,N/A,,Clear,0,2013-01-04 07:55:00
3:15 AM,19.8,18.0,93,30.30,10.0,Calm,Calm,-,N/A,,Clear,0,2013-01-04 08:15:00
3:35 AM,19.0,17.1,92,30.29,10.0,Calm,Calm,-,N/A,,Clear,0,2013-01-04 08:35:00
4:15 AM,18.5,16.3,91,30.28,10.0,Calm,Calm,-,N/A,,Clear,0,2013-01-04 09:15:00
6:35 AM,17.8,15.6,91,30.30,10.0,Calm,Calm,-,N/A,,Clear,0,2013-01-04 11:35:00
7:15 AM,18.1,15.8,91,30.30,10.0,Calm,Calm,-,N/A,,Clear,0,2013-01-04 12:15:00
7:35 AM,17.6,14.9,89,30.31,10.0,Calm,Calm,-,N/A,,Clear,0,2013-01-04 12:35:00
8:15 AM,17.6,15.3,91,30.32,10.0,Calm,Calm,-,N/A,,Clear,0,2013-01-04 13:15:00
8:35 AM,19.4,17.1,91,30.33,10.0,Calm,Calm,-,N/A,,Clear,0,2013-01-04 13:35:00
8:55 AM,21.9,19.9,92,30.33,10.0,Calm,Calm,-,N/A,,Clear,0,2013-01-04 13:55:00
9:15 AM,24.1,22.1,92,30.34,10.0,Calm,Calm,-,N/A,,Clear,0,2013-01-04 14:15:00
9:35 AM,27.5,24.4,88,30.33,10.0,Calm,Calm,-,N/A,,Clear,0,2013-01-04 14:35:00
9:55 AM,30.2,25.3,82,30.33,10.0,Calm,Calm,-,N/A,,Clear,0,2013-01-04 14:55:00
10:15 AM,30.7,24.8,79,30.34,10.0,Calm,Calm,-,N/A,,Clear,0,2013-01-04 15:15:00
10:35 AM,32.5,24.4,72,30.35,10.0,Calm,Calm,-,N/A,,Clear,0,2013-01-04 15:35:00
10:55 AM,34.7,24.3,66,30.34,10.0,Calm,Calm,-,N/A,,Clear,0,2013-01-04 15:55:00
11:15 AM,36.5,23.7,60,30.34,10.0,Calm,Calm,-,N/A,,Clear,0,2013-01-04 16:15:00
11:35 AM,37.8,23.7,57,30.32,10.0,East,3.5,-,N/A,,Clear,100,2013-01-04 16:35:00
11:55 AM,38.8,23.0,53,30.30,10.0,Calm,Calm,-,N/A,,Clear,0,2013-01-04 16:55:00
12:15 PM,41.2,18.5,40,30.29,10.0,North,6.9,-,N/A,,Clear,350,2013-01-04 17:15:00
12:35 PM,42.4,17.2,36,30.28,10.0,NW,8.1,-,N/A,,Clear,310,2013-01-04 17:35:00
12:55 PM,43.5,14.7,31,30.28,10.0,North,4.6,-,N/A,,Clear,360,2013-01-04 17:55:00
1:15 PM,44.4,12.7,28,30.27,10.0,North,6.9,16.1,N/A,,Clear,350,2013-01-04 18:15:00
1:35 PM,45.0,12.4,27,30.26,10.0,North,6.9,-,N/A,,Clear,350,2013-01-04 18:35:00
1:55 PM,44.6,9.3,24,30.24,10.0,NW,8.1,-,N/A,,Clear,320,2013-01-04 18:55:00
2:15 PM,45.5,8.1,22,30.23,10.0,North,12.7,-,N/A,,Clear,360,2013-01-04 19:15:00
2:35 PM,45.5,7.9,22,30.24,10.0,North,8.1,-,N/A,,Clear,350,2013-01-04 19:35:00
2:55 PM,45.0,7.2,21,30.24,10.0,NNW,8.1,18.4,N/A,,Clear,330,2013-01-04 19:55:00
3:15 PM,44.6,8.8,23,30.25,10.0,NNW,10.4,16.1,N/A,,Clear,330,2013-01-04 20:15:00
3:35 PM,43.5,8.8,24,30.26,10.0,NW,12.7,23.0,N/A,,Clear,320,2013-01-04 20:35:00
3:55 PM,43.0,8.4,24,30.26,10.0,NW,9.2,16.1,N/A,,Clear,320,2013-01-04 20:55:00
4:15 PM,42.3,9.1,26,30.27,10.0,NW,11.5,19.6,N/A,,Clear,320,2013-01-04 21:15:00
4:35 PM,41.4,10.4,28,30.27,10.0,NW,8.1,-,N/A,,Clear,320,2013-01-04 21:35:00
4:55 PM,40.5,10.0,29,30.27,10.0,NNW,6.9,-,N/A,,Clear,330,2013-01-04 21:55:00
5:15 PM,39.0,10.0,30,30.28,10.0,NW,3.5,-,N/A,,Clear,320,2013-01-04 22:15:00
5:35 PM,37.8,10.8,33,30.29,10.0,WNW,6.9,-,N/A,,Clear,300,2013-01-04 22:35:00
5:55 PM,36.5,10.9,35,30.29,10.0,WNW,3.5,-,N/A,,Clear,300,2013-01-04 22:55:00
6:15 PM,35.6,11.3,37,30.30,10.0,WNW,4.6,-,N/A,,Clear,300,2013-01-04 23:15:00
6:35 PM,35.4,11.5,37,30.30,10.0,Calm,Calm,-,N/A,,Clear,0,2013-01-04 23:35:00
6:55 PM,35.1,12.7,40,30.30,10.0,Calm,Calm,-,N/A,,Clear,0,2013-01-04 23:55:00
7:15 PM,33.8,13.1,43,30.31,10.0,NW,3.5,-,N/A,,Clear,320,2013-01-05 00:15:00
7:35 PM,34.2,13.1,42,30.31,10.0,NW,5.8,-,N/A,,Clear,310,2013-01-05 00:35:00
7:55 PM,34.2,13.3,42,30.32,10.0,WNW,4.6,-,N/A,,Clear,290,2013-01-05 00:55:00
8:15 PM,33.3,13.6,44,30.32,10.0,Calm,Calm,-,N/A,,Clear,0,2013-01-05 01:15:00
8:35 PM,30.7,15.6,54,30.32,10.0,North,3.5,-,N/A,,Clear,360,2013-01-05 01:35:00
8:55 PM,32.0,16.0,52,30.32,10.0,Calm,Calm,-,N/A,,Clear,0,2013-01-05 01:55:00
9:15 PM,30.7,17.1,57,30.32,10.0,Calm,Calm,-,N/A,,Clear,0,2013-01-05 02:15:00
9:35 PM,30.9,17.4,57,30.32,10.0,NNW,3.5,-,N/A,,Clear,330,2013-01-05 02:35:00
9:55 PM,31.5,17.4,56,30.33,10.0,NNE,3.5,-,N/A,,Clear,30,2013-01-05 02:55:00
10:15 PM,28.0,19.0,69,30.34,10.0,Calm,Calm,-,N/A,,Clear,0,2013-01-05 03:15:00
10:35 PM,26.6,18.7,72,30.33,10.0,Calm,Calm,-,N/A,,Clear,0,2013-01-05 03:35:00
10:55 PM,30.9,19.2,62,30.33,10.0,NNE,3.5,-,N/A,,Clear,20,2013-01-05 03:55:00
11:15 PM,26.4,19.4,75,30.34,10.0,Calm,Calm,-,N/A,,Clear,0,2013-01-05 04:15:00
11:35 PM,25.3,19.2,78,30.35,10.0,Calm,Calm,-,N/A,,Clear,0,2013-01-05 04:35:00
11:55 PM,24.1,18.5,79,30.34,10.0,Calm,Calm,-,N/A,,Clear,0,2013-01-05 04:55:00